sat.trackr.live / text

‹ back to catalog

EUTELSAT 172B

NORAD 42741 · 2017-029B

PAYLOAD ACTIVE UNKNOWN

§ Identity

Operator
Country
EUTE
Launch date
2017-06-01
Launch site
FRGUI
Launch vehicle
Mass (kg)
RCS (m²)

Purposes: comms

External: N2YO · Heavens-Above · Gunter

§ Orbital elements

Epoch: 2026-09-10T04:33:26.840736Z

Period
1,436.12 min
Inclination
0.0210°
Eccentricity
0.0000041
Mean motion
1.00269962 rev/d
Perigee alt
35,786.9 km
Apogee alt
35,787.3 km
Semi-major
42,165.2 km
B*
0.0000e+0
RAAN
145.2876°
Arg perigee
308.7997°
Mean anomaly
135.5158°
Rev number
3,460

§ Raw data

EUTELSAT 172B1 42741U 17029B   26253.18989399 -.00000026  00000+0  00000+0 0  99982 42741   0.0210 145.2876 0000041 308.7997 135.5158  1.00269962 34600

JSON: /api/v1/satellites/42741 · /tle

For live sub-satellite position, see the globe view (requires WebGL).

§ Visibility from observer

Set your observer location to see the next 7 days of passes ≥ 10°. The values pass through the URL so the page stays shareable.

No JS? Fill the form by hand. The geolocation button needs JavaScript.